This demonstration page uses our WeatherBlox Daily Observations layout. Learn more.

Left ArrowRight Arrow

38.89511, -77.03637

Hourly Observations for May 3, 2018

Temp ( °F °C ) Dew Point ( °F °C ) Humidity (%) Winds ( mph kmh ) Pressure ( in mb ) Visibility ( mi km ) Precip ( " mm )
12:52 am 00:52 Partly Cloudy 68 20 54 12.2 61 61 S 8 13 30.06 1018 10 16 0.00 0.00
1:52 am 01:52 Mostly Clear 68 20 53 11.7 59 59 S 10 17 30.05 1018 10 16 0.00 0.00
2:52 am 02:52 Mostly Clear 67 19.4 53 11.7 61 61 S 10 17 30.06 1018 10 16 0.00 0.00
3:52 am 03:52 Clear 67 19.4 53 11.7 61 61 S 9 15 30.07 1018 10 16 0.00 0.00
4:52 am 04:52 Clear 67 19.4 51 10.6 57 57 SSW 3 6 30.08 1019 10 16 0.00 0.00
5:18 am 05:18 Mostly Cloudy 66 18.9 51 10.6 59 59 S 8 13 30.09 1019 10 16 0.00 0.00
5:52 am 05:52 Mostly Cloudy 65 18.3 52 11.1 63 63 S 8 13 30.08 1019 10 16 0.00 0.00
6:52 am 06:52 Mostly Cloudy 67 19.4 50 10 55 55 Calm 30.11 1020 10 16 0.00 0.00
7:52 am 07:52 Mostly Cloudy 69 20.6 53 11.7 57 57 S 6 9 30.11 1020 10 16 0.00 0.00
8:52 am 08:52 Mostly Cloudy 70 21.1 53 11.7 55 55 S 12 19 30.13 1020 10 16 0.00 0.00
9:52 am 09:52 Partly Cloudy 73 22.8 55 12.8 53 53 S 14 22 30.11 1020 10 16 0.00 0.00
10:52 am 10:52 Partly Cloudy 77 25 55 12.8 47 47 S 12 19 30.10 1019 10 16 0.00 0.00
11:52 am 11:52 Mostly Sunny 81 27.2 58 14.4 45 45 S 14 22 30.09 1019 10 16 0.00 0.00
12:52 pm 12:52 Mostly Sunny 84 28.9 59 15 43 43 S 16 26 30.07 1018 10 16 0.00 0.00
1:52 pm 13:52 Mostly Sunny 87 30.6 59 15 39 39 S 13 20 30.05 1018 10 16 0.00 0.00
2:52 pm 14:52 Partly Cloudy 86 30 59 15 40 40 S 12 19 30.03 1017 10 16 0.00 0.00
3:52 pm 15:52 Mostly Sunny 88 31.1 58 14.4 36 36 S 14 22 29.99 1016 10 16 0.00 0.00
4:52 pm 16:52 Partly Cloudy 90 32.2 58 14.4 34 34 S 14 22 29.98 1015 10 16 0.00 0.00
5:52 pm 17:52 Partly Cloudy 89 31.7 57 13.9 34 34 S 15 24 29.97 1015 10 16 0.00 0.00
6:52 pm 18:52 Mostly Cloudy 88 31.1 56 13.3 34 34 SSW 12 19 29.96 1015 10 16 0.00 0.00
7:52 pm 19:52 Mostly Cloudy 85 29.4 56 13.3 37 37 SSW 9 15 29.98 1015 10 16 0.00 0.00
8:52 pm 20:52 Mostly Cloudy 80 26.7 58 14.4 47 47 S 12 19 29.99 1016 10 16 0.00 0.00
9:52 pm 21:52 Partly Cloudy 78 25.6 58 14.4 50 50 S 12 19 30.01 1016 10 16 0.00 0.00
10:52 pm 22:52 Mostly Clear 79 26.1 58 14.4 49 49 S 10 17 30.01 1016 10 16 0.00 0.00
11:52 pm 23:52 Clear 77 25 58 14.4 52 52 S 7 11 30.01 1016 10 16 0.00 0.00

Powered by AerisWeather